Tracking 32139 objects as of 16-Nov-2025
HD Live streaming from Space Station
objects crossing your sky now

STARK

Track STARK now!
10-day predictions


NORAD ID: 65299
Int'l Code: 2025-185B
Perigee: 647.7 km
Apogee: 665.1 km
Inclination: 98.0 °
Period: 97.7 minutes
Semi major axis: 7027 km
RCS: Unknown
Launch date: August 23, 2025
Source: Republic of Rwanda (RWA)
Launch site: Rocket Lab Launch Complex (RLLC)
Your satellite tracking list
Your tracking list is empty




NASA's NSSDC Master Catalog

Two Line Element Set (TLE):
1 65299U 25185C   25319.46301524  .00002213  00000-0  34626-3 0  9999
2 65299  97.9660  40.5499 0012388  65.1419 295.1076 14.73705205 12286
Source of the keplerian elements: AFSPC